Location: Asheville, NC
(35.6000°N, 82.5500°W)
Time: 04:57:07
(UTC-04:00)

Vanguard 1 Rocket - Pass Details

Date: 16 February 2018
Orbit: 652 x 4225 km, 34.3° (Epoch: 24 May)

Event Time Altitude Azimuth Distance (km) Brightness Sun altitude
Rises 23:11:58 0° 229° (SW) 6,627 11.8 -58.5°
Reaches altitude 10° 23:15:46 10° 226° (SW) 5,985 11.5 -59.1°
Enters shadow 23:19:48 22° 222° (SW) 5,388 11.1 -59.7°
Exits shadow 23:58:35 17° 78° (ENE) 6,515 11.5 -64.2°
Drops below altitude 10° 00:02:01 10° 76° (ENE) 7,014 11.8 -64.5°
Sets 00:06:54 0° 74° (ENE) 7,758 12.1 -64.9°
